Terug naar catalogus

SL-12 DEB

LostHEO
NORAD 27959·DEBRIS·🇷🇺 Russia

Gelanceerd Sep 16, 1987 vanaf Baikonur Cosmodrome

Loading…

Volgende Passages (komende 24 uur)

TLE

VerouderdSource: Space-Track

Epoch: Dec 26, 2003, 05:35 UTC

1 27959U 87079AY  03360.23280923 -.00000028 +00000-0 +10000-3 0  9999
2 27959 065.6010 080.1924 5206229 070.9774 233.1802 04.11067039012335

Volg SL-12 DEB in realtime met AllMySat

Download on the App Store